Weather History for Pella, IA

Change the Weather History Date:

Wednesday, January 8, 2014

  Actual Average (KOXV) Record (KOXV)
Temperature  
Mean Temperature 8 °F -  
Max Temperature 14 °F 27 °F 68 °F (2003)
Min Temperature 2 °F 9 °F -15 °F (1970)
Degree Days  
Heating Degree Days 56    
Moisture  
Dew Point -1 °F    
Average Humidity 69    
Maximum Humidity 81    
Minimum Humidity 54    
Precipitation  
Precipitation 0.00 in - - ()
Sea Level Pressure  
Sea Level Pressure 30.41 in    
Wind  
Wind Speed 1 mph (NE)    
Max Wind Speed 6 mph    
Max Gust Speed -    
Visibility 10 miles    
Events      
Averages and records for this station are not official NWS values.
T = Trace of Precipitation, MM = Missing Value Source: NWS Daily Summary

Daily Weather History Graph

Daily Weather History Graph

Search for Another Location

Airport:

Trip Planner

Search our weather history database for the weather conditions in past years. The results will help you decide how hot, cold, wet, or windy it might be!

Date:

Astronomy

Jan. 08, 2014 Rise Set
Actual Time 7:37 AM CST 4:59 PM CST
Civil Twilight 7:06 AM CST 5:30 PM CST
Nautical Twilight 6:32 AM CST 6:05 PM CST
Astronomical Twilight 5:58 AM CST 6:38 PM CST
Moon 11:54 AM CST (1/8) 12:41 AM CST (1/8)
Length of Visible Light 10h 23m
Length of Day
9h 21m
First Quarter, 56% of the Moon is Illuminated
Jan 8
First Quarter
Jan 15
Full
Jan 23
Last Quarter
Jan 30
New
Feb 6
First Quarter

Hourly Weather History & Observations

Time (CST) Temp. Windchill Dew Point Humidity Pressure Visibility Wind Dir Wind Speed Gust Speed Precip Events Conditions
12:15 AM 5.0 °F - -0.8 °F 77% 30.26 in 10.0 mi Calm Calm - N/A   Clear
12:35 AM 5.4 °F - -0.8 °F 76% 30.26 in 10.0 mi Calm Calm - N/A   Clear
12:55 AM 5.2 °F - -1.1 °F 75% 30.27 in 10.0 mi Calm Calm - N/A   Clear
1:15 AM 4.8 °F - -1.3 °F 76% 30.28 in 10.0 mi Calm Calm - N/A   Clear
1:35 AM 4.6 °F - -1.3 °F 76% 30.28 in 10.0 mi Calm Calm - N/A   Clear
1:55 AM 4.5 °F - -1.3 °F 77% 30.29 in 10.0 mi Calm Calm - N/A   Clear
2:15 AM 4.8 °F - -0.8 °F 78% 30.29 in 10.0 mi Calm Calm - N/A   Clear
2:35 AM 5.0 °F - -0.8 °F 77% 30.30 in 10.0 mi Calm Calm - N/A   Clear
2:55 AM 5.0 °F - -0.6 °F 78% 30.31 in 10.0 mi Calm Calm - N/A   Clear
3:15 AM 5.4 °F - -0.0 °F 78% 30.32 in 10.0 mi Calm Calm - N/A   Clear
3:35 AM 5.2 °F - -0.4 °F 78% 30.31 in 10.0 mi Calm Calm - N/A   Clear
3:55 AM 4.6 °F - -0.8 °F 78% 30.31 in 10.0 mi Calm Calm - N/A   Clear
4:15 AM 4.1 °F - -1.1 °F 79% 30.32 in 10.0 mi Calm Calm - N/A   Clear
4:35 AM 4.1 °F - -0.8 °F 80% 30.33 in 10.0 mi Calm Calm - N/A   Clear
4:55 AM 4.1 °F - -0.6 °F 81% 30.34 in 10.0 mi Calm Calm - N/A   Clear
5:15 AM 4.6 °F -2.5 °F -0.4 °F 80% 30.34 in 10.0 mi North 3.5 mph - N/A   Clear
5:35 AM 4.8 °F - -0.0 °F 80% 30.34 in 10.0 mi Calm Calm - N/A   Clear
5:55 AM 4.6 °F -4.5 °F -0.9 °F 78% 30.35 in 10.0 mi North 4.6 mph - N/A   Clear
6:15 AM 4.5 °F -2.7 °F -1.3 °F 77% 30.35 in 10.0 mi North 3.5 mph - N/A   Clear
6:35 AM 4.6 °F -4.5 °F -1.7 °F 75% 30.36 in 10.0 mi NNE 4.6 mph - N/A   Clear
6:55 AM 5.0 °F -5.6 °F -2.2 °F 72% 30.36 in 10.0 mi NNE 5.8 mph - N/A   Clear
7:15 AM 5.0 °F -4.1 °F -2.2 °F 72% 30.36 in 10.0 mi NNE 4.6 mph - N/A   Clear
7:35 AM 5.0 °F -4.1 °F -2.2 °F 72% 30.38 in 10.0 mi NNE 4.6 mph - N/A   Clear
7:55 AM 5.4 °F -1.7 °F -1.7 °F 73% 30.38 in 10.0 mi NNE 3.5 mph - N/A   Clear
8:15 AM 5.7 °F -1.3 °F -1.5 °F 72% 30.39 in 10.0 mi NE 3.5 mph - N/A   Clear
8:35 AM 6.4 °F -2.4 °F -1.3 °F 71% 30.41 in 10.0 mi NE 4.6 mph - N/A   Clear
8:55 AM 6.8 °F - -1.3 °F 69% 30.42 in 10.0 mi Calm Calm - N/A   Clear
9:15 AM 7.3 °F - -1.3 °F 68% 30.43 in 10.0 mi Calm Calm - N/A   Clear
9:35 AM 7.7 °F -2.4 °F -1.3 °F 67% 30.44 in 10.0 mi NE 5.8 mph - N/A   Clear
9:55 AM 8.2 °F -1.8 °F -1.1 °F 66% 30.45 in 10.0 mi NE 5.8 mph - N/A   Clear
10:15 AM 7.7 °F - -1.8 °F 65% 30.45 in 10.0 mi Calm Calm - N/A   Clear
10:35 AM 8.2 °F -0.3 °F -1.5 °F 65% 30.46 in 10.0 mi NNE 4.6 mph - N/A   Clear
10:55 AM 8.6 °F 2.0 °F -1.5 °F 64% 30.45 in 10.0 mi NE 3.5 mph - N/A   Clear
11:15 AM 9.0 °F 2.4 °F -1.5 °F 63% 30.44 in 10.0 mi NNE 3.5 mph - N/A   Clear
11:35 AM 9.7 °F 1.4 °F -1.5 °F 61% 30.44 in 10.0 mi NE 4.6 mph - N/A   Clear
11:55 AM 10.2 °F 3.8 °F -1.5 °F 59% 30.44 in 10.0 mi NE 3.5 mph - N/A   Clear
12:15 PM 11.1 °F 4.9 °F -1.3 °F 57% 30.43 in 10.0 mi NNE 3.5 mph - N/A   Clear
12:35 PM 11.7 °F 5.5 °F -1.3 °F 56% 30.43 in 10.0 mi NNE 3.5 mph - N/A   Clear
12:55 PM 11.8 °F - -1.1 °F 56% 30.43 in 10.0 mi Calm Calm - N/A   Clear
1:15 PM 12.6 °F 4.8 °F -0.8 °F 55% 30.43 in 10.0 mi North 4.6 mph - N/A   Clear
1:35 PM 14.0 °F - -0.0 °F 54% 30.43 in 10.0 mi Calm Calm - N/A   Clear
1:55 PM 13.6 °F - 0.3 °F 55% 30.43 in 10.0 mi Calm Calm - N/A   Clear
2:15 PM 12.7 °F 3.6 °F -0.0 °F 57% 30.43 in 10.0 mi NNE 5.8 mph - N/A   Clear
2:35 PM 12.2 °F 6.1 °F -0.2 °F 58% 30.44 in 10.0 mi NE 3.5 mph - N/A   Clear
2:55 PM 12.0 °F 5.9 °F 0.1 °F 59% 30.44 in 10.0 mi NNE 3.5 mph - N/A   Clear
3:15 PM 11.8 °F 5.7 °F 0.3 °F 60% 30.45 in 10.0 mi NNE 3.5 mph - N/A   Clear
3:35 PM 11.1 °F 3.1 °F -0.6 °F 59% 30.45 in 10.0 mi NE 4.6 mph - N/A   Clear
3:55 PM 10.9 °F - -1.5 °F 57% 30.45 in 10.0 mi Calm Calm - N/A   Clear
4:15 PM 10.0 °F 3.6 °F -0.9 °F 61% 30.45 in 10.0 mi NNE 3.5 mph - N/A   Clear
4:35 PM 9.0 °F 2.4 °F -1.3 °F 63% 30.45 in 10.0 mi NE 3.5 mph - N/A   Clear
4:55 PM 8.1 °F - -1.3 °F 66% 30.45 in 10.0 mi Calm Calm - N/A   Clear
5:15 PM 7.3 °F - -1.3 °F 68% 30.45 in 10.0 mi Calm Calm - N/A   Clear
5:35 PM 7.5 °F - -0.9 °F 68% 30.45 in 10.0 mi Calm Calm - N/A   Clear
5:55 PM 6.8 °F - -0.9 °F 71% 30.46 in 10.0 mi Calm Calm - N/A   Clear
6:15 PM 7.0 °F - -0.8 °F 71% 30.46 in 10.0 mi Calm Calm - N/A   Clear
6:35 PM 7.2 °F - -0.8 °F 70% 30.46 in 10.0 mi Calm Calm - N/A   Clear
6:55 PM 6.8 °F - -1.3 °F 69% 30.46 in 10.0 mi Calm Calm - N/A   Clear
7:15 PM 6.8 °F - -1.5 °F 69% 30.47 in 10.0 mi Calm Calm - N/A   Clear
7:35 PM 6.4 °F - -1.7 °F 69% 30.47 in 10.0 mi Calm Calm - N/A   Clear
7:55 PM 5.9 °F - -1.7 °F 71% 30.48 in 10.0 mi Calm Calm - N/A   Clear
8:15 PM 5.9 °F - -1.5 °F 72% 30.47 in 10.0 mi Calm Calm - N/A   Clear
8:35 PM 6.6 °F - -1.3 °F 70% 30.47 in 10.0 mi Calm Calm - N/A   Clear
8:55 PM 6.6 °F - -1.5 °F 69% 30.47 in 10.0 mi Calm Calm - N/A   Clear
9:15 PM 5.9 °F - -2.2 °F 69% 30.47 in 10.0 mi Calm Calm - N/A   Clear
9:35 PM 5.0 °F - -2.2 °F 72% 30.47 in 10.0 mi Calm Calm - N/A   Clear
9:55 PM 5.0 °F - -2.4 °F 72% 30.47 in 10.0 mi Calm Calm - N/A   Clear
10:15 PM 4.3 °F - -3.1 °F 71% 30.47 in 10.0 mi Calm Calm - N/A   Clear
10:35 PM 4.3 °F -2.9 °F -3.1 °F 71% 30.47 in 10.0 mi East 3.5 mph - N/A   Clear
10:55 PM 4.6 °F - -3.1 °F 70% 30.47 in 10.0 mi Calm Calm - N/A   Clear
11:15 PM 4.1 °F - -3.3 °F 71% 30.47 in 10.0 mi Calm Calm - N/A   Clear
11:35 PM 3.7 °F - -3.5 °F 72% 30.46 in 10.0 mi Calm Calm - N/A   Clear
11:55 PM 2.8 °F -4.6 °F -3.6 °F 74% 30.46 in 10.0 mi East 3.5 mph - N/A   Clear